Torna al catalogo

STARLINK-2123

AttivoComunicazioniVLEO
NORAD 47401·PAYLOAD·🇺🇸 United States

Lanciato Jan 20, 2021 da Cape Canaveral Space Force Station

Loading…

Prossimi Passaggi (prossime 24 ore)

TLE

AggiornatoSource: CelesTrak SupGP

Epoca: Sep 14, 2026, 20:01 UTC

1 47401C 21005BE  26257.83451389  .00046574  00000+0  14983-2 0  2576
2 47401  53.1585 236.7227 0001388 100.3297  75.5679 15.31664749    12

Traccia STARLINK-2123 in tempo reale con AllMySat

Download on the App Store